Weather History for KMLI - December, 2012

Change the Weather History Date:

Thursday, December 20, 2012

  Actual Average Record
Temperature  
Mean Temperature 30 °F 25 °F  
Max Temperature 40 °F 33 °F 62 °F (1877)
Min Temperature 19 °F 17 °F -14 °F (1963)
Degree Days  
Heating Degree Days 35 40  
Month to date heating degree days 526 739  
Since 1 July heating degree days 1871 1970  
Cooling Degree Days 0 0  
Month to date cooling degree days 0 0  
Year to date cooling degree days 1208 1004  
Moisture  
Dew Point 31 °F    
Average Humidity 85    
Maximum Humidity 92    
Minimum Humidity 77    
Precipitation  
Precipitation 1.48 in 0.06 in 1.48 in (2012)
Month to date precipitation 2.66 1.52  
Year to date precipitation 27.24 37.30  
Snow  
Snow 4.90 in 0.40 in - ()
Month to date snowfall 4.9 5.6  
Since 1 July snowfall 4.9 6.8  
Snow Depth 0.00 in    
Sea Level Pressure  
Sea Level Pressure 29.41 in    
Wind  
Wind Speed 24 mph (North)    
Max Wind Speed 39 mph    
Max Gust Speed 54 mph    
Visibility 3 miles    
Events Fog , Rain , Snow , Thunderstorm    
T = Trace of Precipitation, MM = Missing Value Source: NWS Daily Summary

Daily Weather History Graph

Daily Weather History Graph

Search for Another Location

Airport or City:

Trip Planner

Search our weather history database for the weather conditions in past years. The results will help you decide how hot, cold, wet, or windy it might be!

Date:

Astronomy

Dec. 20, 2012 Rise Set
Actual Time 7:24 AM CST 4:35 PM CST
Civil Twilight 6:53 AM CST 5:06 PM CST
Nautical Twilight 6:18 AM CST 5:41 PM CST
Astronomical Twilight 5:44 AM CST 6:15 PM CST
Moon 11:56 AM CST (12/20) 12:07 AM CST (12/20)
Length of Visible Light 10h 13m
Length of Day
9h 10m
First Quarter, 55% of the Moon is Illuminated
Dec 20
First Quarter
Dec 28
Full
Jan 4
Last Quarter
Jan 11
New
Jan 18
First Quarter

Hourly Weather History & Observations

Time (CST) Temp. Windchill Dew Point Humidity Pressure Visibility Wind Dir Wind Speed Gust Speed Precip Events Conditions
12:07 AM 37.4 °F 31.4 °F 35.6 °F 93% 29.68 in 2.5 mi North 8.1 mph - 0.08 in Rain Heavy Rain
12:24 AM 37.4 °F 27.5 °F 35.6 °F 93% 29.63 in 2.0 mi ENE 18.4 mph - 0.21 in Rain Heavy Rain
12:34 AM 37.4 °F 26.4 °F 35.6 °F 93% 29.60 in 3.0 mi East 23.0 mph 28.8 mph 0.25 in Rain Rain
12:43 AM 37.4 °F 26.6 °F 35.6 °F 93% 29.60 in 4.0 mi East 21.9 mph - 0.27 in Rain Rain
12:52 AM 37.0 °F 26.2 °F 36.0 °F 96% 29.60 in 3.0 mi East 21.9 mph 27.6 mph 0.28 in Rain Rain
1:11 AM 37.4 °F 26.9 °F 35.6 °F 93% 29.55 in 4.0 mi East 20.7 mph 25.3 mph 0.07 in Rain Rain
1:52 AM 37.9 °F 27.9 °F 36.0 °F 93% 29.53 in 6.0 mi ENE 19.6 mph 26.5 mph 0.11 in Rain Light Rain
2:52 AM 39.0 °F 30.6 °F 37.9 °F 96% 29.48 in 6.0 mi East 15.0 mph - 0.01 in   Overcast
3:52 AM 39.2 °F 33.0 °F 37.4 °F 93% 29.41 in 4.0 mi ENE 9.2 mph - N/A   Overcast
4:07 AM 39.2 °F 32.5 °F 37.4 °F 93% 29.39 in 2.0 mi NNE 10.4 mph - 0.01 in Rain Light Rain
4:50 AM 39.2 °F 31.6 °F 37.4 °F 93% 29.34 in 2.0 mi NNE 12.7 mph - 0.03 in Rain Light Rain
4:52 AM 39.0 °F 31.8 °F 37.9 °F 96% 29.35 in 2.0 mi NNE 11.5 mph - 0.03 in Rain Light Rain
5:48 AM 39.2 °F 31.6 °F 37.4 °F 93% 29.30 in 3.0 mi NE 12.7 mph 17.3 mph 0.03 in Rain , Thunderstorm Light Thunderstorms and Rain
5:52 AM 39.9 °F 32.1 °F 37.9 °F 93% 29.32 in 3.0 mi NE 13.8 mph 19.6 mph 0.04 in Rain , Thunderstorm Thunderstorms and Rain
6:19 AM 39.2 °F 34.2 °F 39.2 °F 100% 29.29 in 2.5 mi NNE 6.9 mph - 0.14 in Rain Heavy Rain
6:35 AM 39.2 °F 32.0 °F 37.4 °F 93% 29.28 in 3.0 mi NNE 11.5 mph - 0.22 in Rain Rain
6:52 AM 39.0 °F 32.3 °F 37.0 °F 93% 29.30 in 4.0 mi NNE 10.4 mph - 0.26 in Rain Light Rain
7:52 AM 36.0 °F 27.1 °F 34.0 °F 93% 29.27 in 5.0 mi North 13.8 mph 20.7 mph 0.12 in Rain Rain
8:52 AM 35.1 °F 25.5 °F 33.1 °F 92% 29.24 in 3.0 mi NNE 15.0 mph 25.3 mph 0.10 in Rain Rain
9:21 AM 35.6 °F 25.2 °F 33.8 °F 93% 29.21 in 2.5 mi North 18.4 mph 26.5 mph 0.06 in Rain Rain
9:28 AM 35.6 °F 24.8 °F 33.8 °F 93% 29.21 in 4.0 mi North 19.6 mph 27.6 mph 0.07 in Rain Rain
9:52 AM 35.1 °F 24.5 °F 32.0 °F 89% 29.23 in 4.0 mi North 18.4 mph 36.8 mph 0.11 in Rain Rain
10:52 AM 33.1 °F 20.1 °F 30.0 °F 89% 29.21 in 3.0 mi NNW 25.3 mph 39.1 mph 0.15 in Rain Heavy Rain
11:00 AM 33.8 °F 22.2 °F 30.2 °F 87% 29.20 in 2.0 mi NNW 20.7 mph 38.0 mph 0.04 in Snow Light Snow
11:19 AM 32.0 °F 19.2 °F 30.2 °F 93% 29.21 in 0.8 mi NNW 23.0 mph 34.5 mph 0.06 in Snow Light Snow
11:25 AM 32.0 °F 18.9 °F 30.2 °F 93% 29.21 in 0.2 mi NNW 24.2 mph 34.5 mph 0.06 in Fog , Snow Heavy Snow
11:34 AM 32.0 °F 18.4 °F 30.2 °F 93% 29.20 in 0.2 mi NNW 26.5 mph 35.7 mph 0.08 in Fog Fog
11:52 AM 32.0 °F 18.1 °F 30.0 °F 92% 29.21 in 0.2 mi NNW 27.6 mph 40.3 mph 0.11 in Fog , Snow Heavy Snow
12:00 PM 32.0 °F 18.1 °F 30.2 °F 93% 29.19 in 0.2 mi NNW 27.6 mph 44.9 mph 0.03 in Fog , Snow Heavy Snow
12:08 PM 32.0 °F 18.1 °F 30.2 °F 93% 29.20 in 0.2 mi NNW 27.6 mph 41.4 mph 0.05 in Fog , Snow Heavy Snow
12:27 PM 32.0 °F 17.9 °F 30.2 °F 93% 29.20 in 0.2 mi NNW 28.8 mph 40.3 mph 0.08 in Fog , Snow Snow
12:43 PM 32.0 °F 19.2 °F 30.2 °F 93% 29.22 in 0.5 mi NNW 23.0 mph 43.7 mph 0.09 in Fog , Snow Snow
12:52 PM 32.0 °F 18.1 °F 30.0 °F 92% 29.24 in 0.5 mi NNW 27.6 mph 48.3 mph 0.09 in Fog , Snow Snow
1:22 PM 32.0 °F 18.1 °F 30.2 °F 93% 29.25 in 0.5 mi NNW 27.6 mph 41.4 mph 0.03 in Fog , Snow Snow
1:52 PM 32.0 °F 17.2 °F 28.9 °F 88% 29.29 in 0.5 mi NW 32.2 mph 42.6 mph 0.04 in Fog , Snow Snow
2:50 PM 30.2 °F 14.9 °F 28.4 °F 93% 29.33 in 0.2 mi NW 31.1 mph 47.2 mph N/A Fog , Snow Snow
2:52 PM 30.9 °F 15.7 °F 28.0 °F 89% 29.35 in 0.2 mi NW 32.2 mph 47.2 mph 0.01 in Fog , Snow Snow
3:00 PM 30.2 °F 14.3 °F 28.4 °F 93% 29.35 in 0.2 mi NW 34.5 mph 49.5 mph 0.00 in Fog , Snow Snow
3:52 PM 30.0 °F 14.9 °F 27.0 °F 88% 29.44 in 0.2 mi NW 29.9 mph 47.2 mph 0.01 in Fog , Snow Heavy Snow
4:30 PM 28.4 °F 12.7 °F 26.6 °F 93% 29.47 in 0.5 mi NW 29.9 mph 48.3 mph 0.01 in Fog , Snow Snow
4:52 PM 28.0 °F 10.9 °F 26.1 °F 92% 29.51 in 0.5 mi NW 36.8 mph 51.8 mph 0.01 in Fog , Snow Snow
5:52 PM 27.0 °F 10.5 °F 24.1 °F 89% 29.58 in 0.8 mi WNW 31.1 mph 47.2 mph 0.00 in Fog , Snow Snow
6:52 PM 27.0 °F 9.8 °F 23.0 °F 85% 29.63 in 3.0 mi WNW 34.5 mph 48.3 mph N/A Fog , Snow Snow
7:27 PM 26.6 °F 10.6 °F 23.0 °F 86% 29.63 in 7.0 mi NW 28.8 mph 50.6 mph N/A Snow Light Snow
7:52 PM 27.0 °F 11.0 °F 23.0 °F 85% 29.67 in 7.0 mi WNW 28.8 mph 44.9 mph N/A Snow Light Snow
8:52 PM 25.0 °F 8.9 °F 21.0 °F 85% 29.71 in 7.0 mi WNW 26.5 mph 36.8 mph N/A Snow Light Snow
9:52 PM 23.0 °F 6.3 °F 18.0 °F 81% 29.75 in 4.0 mi WNW 26.5 mph 43.7 mph N/A Snow Light Snow
10:52 PM 21.0 °F 2.2 °F 16.0 °F 81% 29.79 in 4.0 mi WNW 32.2 mph 43.7 mph N/A Snow Light Snow
11:42 PM 19.4 °F 1.8 °F 14.0 °F 80% 29.81 in 5.0 mi WNW 25.3 mph 40.3 mph N/A Snow Light Snow
11:52 PM 19.0 °F 1.0 °F 14.0 °F 81% 29.84 in 8.0 mi WNW 26.5 mph 35.7 mph N/A Snow Light Snow